KUNU

Details ICAO KUNU
Name Dodge Co
Region United States
Timezone America/Chicago (UTC-5.0)
Plans Departing 1
Arriving 0
Stats Elevation 934 ft / 285 m (AMSL)
Location 43.426525° -88.703406°
Runways 2
Magnetic Variation 3.281° W
Sunrise 2017-03-24 11:51:37 UTC / 2017-03-24 06:51:37 Local
Sunset 2017-03-25 00:12:49 UTC / 2017-03-24 19:12:49 Local
Advertisement - Login to hide

Runways

ID Width Length Bearing (true) Bearing (mag) Surface Threshold Offset Overrun Length
02 75 ft / 23 m 4,032 ft / 1,229 m 17.15° 20.43° Asphalt 0 ft / 0 m 0 ft / 0 m
08 100 ft / 30 m 5,048 ft / 1,539 m 79.67° 82.95° Asphalt 0 ft / 0 m 0 ft / 0 m
20 75 ft / 23 m 4,032 ft / 1,229 m 197.15° 200.43° Asphalt 0 ft / 0 m 0 ft / 0 m
26 100 ft / 30 m 5,048 ft / 1,539 m 259.69° 262.97° Asphalt 0 ft / 0 m 0 ft / 0 m

Approach Navaids

Runway Type Ident Frequency Range Bearing (true) Bearing (mag) Slope Elevation
26 Localiser IJNE 109.55 MHz 18 nm / 33 km 259.68° 262.96° - 883 ft / 269 m (AMSL)
26 DME IJNE 109.55 MHz 18 nm / 33 km - - - 903 ft / 275 m (AMSL)

Map

Weather

Temperature
Clouds and Precipitation
Forecast for 2017-03-24 12:00 UTC. Updated 37 minutes ago
Winds

METAR

KUNU 241135Z AUTO 05003KT 10SM SCT070 OVC080 04/02 A2989 RMK AO2 T00420023

TAF

Not found

Frequencies

Recorded 119.07 MHz AWOS 3
Approach 119.15 MHz MADISON APP/DEP
Unicom 122.70 MHz CTAF/UNICOM
Warning: Do not use this data for real-world aviation or navigation. No guarantee of current accuracy is given.